Weather History for KDCU - March, 2013

Change the Weather History Date:

Wednesday, March 6, 2013

  Actual Average Record
Temperature  
Mean Temperature 36 °F -  
Max Temperature 43 °F 60 °F 80 °F (1956)
Min Temperature 30 °F 35 °F 15 °F (2015)
Degree Days  
Heating Degree Days 28    
Moisture  
Dew Point 25 °F    
Average Humidity 64    
Maximum Humidity 82    
Minimum Humidity 53    
Precipitation  
Precipitation 0.00 in - - ()
Sea Level Pressure  
Sea Level Pressure 30.23 in    
Wind  
Wind Speed 13 mph (NW)    
Max Wind Speed 18 mph    
Max Gust Speed 25 mph    
Visibility 10 miles    
Events      
Averages and records for this station are not official NWS values.
T = Trace of Precipitation, MM = Missing Value Source: NWS Daily Summary

Daily Weather History Graph

Daily Weather History Graph

Search for Another Location

Airport or City:

Trip Planner

Search our weather history database for the weather conditions in past years. The results will help you decide how hot, cold, wet, or windy it might be!

Date:

Astronomy

Mar. 06, 2013 Rise Set
Actual Time 6:10 AM CST 5:48 PM CST
Civil Twilight 5:44 AM CST 6:13 PM CST
Nautical Twilight 5:15 AM CST 6:42 PM CST
Astronomical Twilight 4:46 AM CST 7:11 PM CST
Moon 2:08 AM CST (3/6) 12:39 PM CST (3/6)
Length of Visible Light 12h 28m
Length of Day
11h 38m
Waning Crescent, 29% of the Moon is Illuminated
Mar 6
Waning Crescent
Mar 11
New
Mar 19
First Quarter
Mar 27
Full
Apr 2
Last Quarter

Hourly Weather History & Observations

Time (CST) Temp. Windchill Dew Point Humidity Pressure Visibility Wind Dir Wind Speed Gust Speed Precip Events Conditions
12:53 AM 34.0 °F 25.0 °F 19.0 °F 54% 30.09 in 10.0 mi WNW 12.7 mph - N/A   Clear
1:53 AM 34.0 °F 23.8 °F 19.9 °F 56% 30.09 in 10.0 mi WNW 16.1 mph 21.9 mph N/A   Scattered Clouds
2:53 AM 34.0 °F 24.6 °F 21.0 °F 59% 30.10 in 10.0 mi NW 13.8 mph 24.2 mph N/A   Overcast
3:53 AM 34.0 °F 24.6 °F 21.9 °F 61% 30.11 in 10.0 mi WNW 13.8 mph - N/A   Overcast
4:53 AM 35.1 °F 25.5 °F 21.0 °F 57% 30.13 in 10.0 mi NW 15.0 mph 25.3 mph N/A   Overcast
6:53 AM 34.0 °F 24.6 °F 21.9 °F 61% 30.19 in 10.0 mi NW 13.8 mph - N/A   Overcast
7:53 AM 34.0 °F 23.0 °F 24.1 °F 67% 30.23 in 10.0 mi NNW 18.4 mph - N/A   Overcast
8:53 AM 34.0 °F 25.0 °F 25.0 °F 70% 30.25 in 10.0 mi NW 12.7 mph - N/A   Overcast
9:16 AM 35.6 °F 25.9 °F 24.8 °F 65% 30.24 in 10.0 mi NW 16.1 mph 23.0 mph N/A   Mostly Cloudy
9:53 AM 36.0 °F 27.1 °F 24.1 °F 62% 30.26 in 10.0 mi NW 13.8 mph 21.9 mph N/A   Overcast
10:53 AM 37.9 °F 29.2 °F 25.0 °F 60% 30.27 in 10.0 mi NW 15.0 mph 24.2 mph N/A   Overcast
11:53 AM 39.9 °F 32.5 °F 26.1 °F 58% 30.26 in 10.0 mi NW 12.7 mph - N/A   Overcast
12:53 PM 43.0 °F 36.8 °F 27.0 °F 53% 30.25 in 10.0 mi NW 11.5 mph 20.7 mph N/A   Scattered Clouds
1:53 PM 43.0 °F 37.2 °F 27.0 °F 53% 30.25 in 10.0 mi WNW 10.4 mph 20.7 mph N/A   Overcast
2:53 PM 43.0 °F 36.8 °F 28.0 °F 56% 30.25 in 10.0 mi NW 11.5 mph - N/A   Overcast
3:53 PM 43.0 °F 36.4 °F 28.0 °F 56% 30.27 in 10.0 mi NW 12.7 mph - N/A   Overcast
4:53 PM 42.1 °F 36.1 °F 28.0 °F 58% 30.27 in 10.0 mi NNW 10.4 mph - N/A   Overcast
5:53 PM 41.0 °F 33.9 °F 27.0 °F 57% 30.28 in 10.0 mi NNW 12.7 mph - N/A   Overcast
6:53 PM 36.0 °F 30.3 °F 28.0 °F 73% 30.28 in 10.0 mi North 6.9 mph - N/A   Clear
7:53 PM 34.0 °F 29.8 °F 27.0 °F 75% 30.29 in 10.0 mi North 4.6 mph - N/A   Clear
8:53 PM 33.1 °F 27.7 °F 27.0 °F 78% 30.29 in 10.0 mi NW 5.8 mph - N/A   Clear
9:53 PM 30.9 °F 27.5 °F 25.0 °F 79% 30.30 in 10.0 mi NNW 3.5 mph - N/A   Clear
10:53 PM 30.9 °F 25.2 °F 26.1 °F 82% 30.31 in 10.0 mi North 5.8 mph - N/A   Clear
11:53 PM 30.0 °F 25.2 °F 25.0 °F 82% 30.31 in 10.0 mi North 4.6 mph - N/A   Clear